[[{"header":{"parameterUnit":"m.s-1","parameterCategory":1,"la1":30.2991,"la2":30.254,"lo1":-89.0895,"lo2":-89.0444,"dy":0.0017,"dx":0.0017,"nx":28,"ny":28,"refTime":"2023-06-18T21:00:00:Z","depth":0,"parameterNumber":2,"parameterNumberName":"U-component_of_WINDS"},"data":[0,0,0,0,0,0,0,0,0,0,0,0,0,0,0,0,0,0,0,0,0,0,0,0,0,0,0,0,0,0,0,0,0,0,0,0,0,0,0,0,0,0,0,0,0,0,0,0,0,0,0,0,0,0,0,0,0,0,4.558,4.558,0,4.5609,4.561,4.561,4.5546,4.5544,4.5542,4.554,4.557,4.5573,4.5575,0,0,0,0,0,0,0,0,0,0,0,0,0,4.5465,4.5468,4.558,4.558,4.558,4.5609,4.561,4.561,4.5546,4.5544,4.5541,4.5539,4.5569,4.5572,4.5576,0,0,0,0,0,0,0,0,0,0,0,0,0,4.5507,4.5468,4.558,4.5552,4.555,4.5609,4.561,4.561,4.5547,4.5544,4.5541,4.5538,4.5568,4.5572,4.5576,4.5664,0,0,4.5589,4.559,0,0,0,0,0,0,0,0,4.5505,4.5511,4.5556,4.5554,4.5552,4.5571,4.558,4.5628,4.5548,4.5548,4.554,4.5536,4.5573,4.5576,4.5589,4.5665,4.5666,4.5589,4.5592,4.5593,4.5594,0,0,0,0,0,0,0,4.5502,4.551,4.5591,4.5556,4.5554,4.5537,4.554,4.5589,4.5578,4.5548,4.5543,4.5548,4.5571,4.5585,4.5589,4.5667,4.5589,4.5593,4.5595,4.5597,4.5813,4.5816,0,0,0,0,0,0,4.5503,4.5508,4.559,4.5592,4.552,4.5542,4.5545,4.5568,4.5577,4.5575,4.555,4.5545,4.5579,4.5584,4.559,4.569,4.5593,4.5597,4.5599,4.581,4.5814,4.5817,0,0,0,0,0,0,4.55,4.5511,4.5589,4.5549,4.5557,4.5547,4.5574,4.557,4.5584,4.5579,4.5576,4.5567,4.5577,4.5584,4.5645,4.569,4.5599,4.5603,4.5806,4.5811,4.5815,4.5894,0,0,0,0,0,0,4.5497,4.551,4.5544,4.555,4.556,4.5645,4.5577,4.5573,4.5591,4.5584,4.5593,4.5592,4.5575,4.5639,4.5649,4.5694,4.5606,4.5801,4.5808,4.5814,4.5887,4.5901,4.5912,0,0,0,0,0,4.5494,4.5566,4.5546,4.5557,4.5602,4.5648,4.5653,4.5633,4.5595,4.5628,4.5624,4.5592,4.5684,4.5646,4.5657,4.5704,4.5799,4.5806,4.5813,4.5881,4.5898,4.5912,0,0,0,0,0,0,4.5566,4.5566,4.5544,4.5621,4.5635,4.5637,4.5678,4.5652,4.5677,4.5669,4.5642,4.5645,4.571,4.5713,4.5671,4.5787,4.5735,4.5745,4.5783,4.5799,4.5811,4.5808,4.5609,0,0,0,0,0,4.5591,4.5628,4.5626,4.5694,4.5702,4.5689,4.5708,4.5691,4.5704,4.571,4.5711,4.5725,4.5756,4.5778,4.5807,4.5887,4.5887,4.5925,4.5938,4.5948,4.5956,4.5996,4.6012,4.5841,4.5841,4.5841,0,0,4.5643,4.5647,4.5673,4.5708,4.5717,4.5755,4.5694,4.5738,4.5766,4.5716,4.5773,4.5774,4.5788,4.5858,4.5889,4.5863,4.6003,4.5957,4.5966,4.5968,4.6005,4.6021,4.6036,4.5846,4.5845,4.5845,0,0,4.5756,4.5764,4.582,4.5829,4.5843,4.5833,4.5847,4.5853,4.5851,4.5908,4.5871,4.5903,4.596,4.597,4.5982,4.6097,4.6067,4.6107,4.6173,4.6212,4.6226,4.6237,4.6276,4.629,4.6116,4.6116,4.6116,0,4.5818,4.5875,4.5852,4.5897,4.5913,4.5869,4.5924,4.5935,4.5957,4.5969,4.5939,4.6007,4.6013,4.6083,4.6111,4.6124,4.6136,4.6105,4.6226,4.6237,4.6248,4.6284,4.6299,4.6121,4.612,4.612,4.6119,0,4.595,4.5989,4.6032,4.6054,4.6075,4.6125,4.6108,4.6132,4.6112,4.6106,4.6163,4.6169,4.6197,4.6213,4.6195,4.628,4.6263,4.623,4.6176,4.6269,4.6302,4.6316,4.6128,4.6126,4.6124,4.6123,0,0,4.611,4.6116,4.6133,4.614,4.6151,4.6181,4.6228,4.6256,4.6275,4.6292,4.633,4.6377,4.6346,4.636,4.6343,4.6378,4.6465,4.634,4.634,4.6361,4.6556,4.6579,4.6596,4.6445,4.6448,4.645,4.6554,0,4.622,4.6301,4.628,4.636,4.6395,4.6353,4.6394,4.6404,4.6399,4.6427,4.6421,4.6454,4.6412,4.642,4.6452,4.6447,4.6503,4.644,4.6478,4.648,4.6474,4.6614,4.6639,4.6737,4.6567,4.6569,4.6571,0,4.6359,4.638,4.6463,4.6465,4.6479,4.6516,4.6538,4.6566,4.6576,4.657,4.6585,4.656,4.6605,4.6552,4.6613,4.657,4.6585,4.6584,4.6588,4.6589,4.653,4.6617,4.6768,4.6782,4.6592,4.659,4.6589,0,4.6464,4.6513,4.6568,4.6577,4.6582,4.6608,4.6612,4.6619,4.6635,4.6655,4.6665,4.6689,4.6702,4.6722,4.6703,4.6667,4.6766,4.6712,4.676,4.6761,4.6782,4.678,4.6935,4.6795,4.6795,4.6795,4.6794,0,4.6588,4.664,4.6615,4.6649,4.6705,4.668,4.6737,4.6735,4.6741,4.6773,4.6739,4.677,4.6745,4.6773,4.6759,4.681,4.6817,4.6812,4.6807,4.6814,4.6814,4.6822,4.6813,4.6798,4.6798,4.6797,4.6796,0,4.6715,4.6701,4.6757,4.6757,4.6758,4.6799,4.6798,4.6828,4.682,4.6861,4.6869,4.6856,4.6887,4.6871,4.6904,4.6894,4.6959,4.6946,4.6955,4.6951,4.6999,4.6994,4.7163,4.7182,4.7032,4.7033,4.7034,0,4.6794,4.6833,4.6835,4.6854,4.6859,4.689,4.6906,4.6883,4.6901,4.6914,4.6943,4.6971,4.6992,4.7043,4.7036,4.706,4.7046,4.7104,4.705,4.7054,4.7044,4.7041,4.7044,4.7114,4.7116,4.7117,4.7119,0,4.6935,4.6925,4.695,4.6972,4.6992,4.7008,4.7021,4.7039,4.7015,4.7037,4.7068,4.7084,4.7116,4.7144,4.7164,4.7167,4.7138,4.7136,4.7148,4.7154,4.7156,4.7153,4.6982,4.7132,4.713,4.7129,4.7129,4.7128,4.7039,4.707,4.7075,4.7103,4.7111,4.7123,4.7151,4.7145,4.7171,4.7194,4.7179,4.7215,4.7222,4.7246,4.7252,4.7279,4.7256,4.7274,4.7278,4.7282,4.7287,4.7154,4.7283,4.7282,4.7282,4.7282,4.7281,0,4.7175,4.7176,4.7202,4.7221,4.7242,4.7214,4.7226,4.7246,4.7278,4.7286,4.7307,4.7341,4.7367,4.7362,4.7385,4.7407,4.7395,4.7414,4.7411,4.7412,4.7308,4.7294,4.7424,4.7424,4.7424,4.7423,4.7423,4.7423,4.7249,4.7299,4.729,4.7342,4.7343,4.7377,4.7386,4.7397,4.7403,4.7443,4.7464,4.746,4.7462,4.7485,4.7507,4.7505,4.7514,4.7537,4.753,4.7433,4.7419,4.7406,4.7392,4.754,4.754,4.7631,4.7632,4.7633]},{"header":{"parameterUnit":"m.s-1","parameterCategory":1,"la1":30.2991,"la2":30.254,"lo1":-89.0895,"lo2":-89.0444,"dy":0.0017,"dx":0.0017,"nx":28,"ny":28,"refTime":"2023-06-18T21:00:00:Z","depth":0,"parameterNumber":3,"parameterNumberName":"V-component_of_WINDS"},"data":[0,0,0,0,0,0,0,0,0,0,0,0,0,0,0,0,0,0,0,0,0,0,0,0,0,0,0,0,0,0,0,0,0,0,0,0,0,0,0,0,0,0,0,0,0,0,0,0,0,0,0,0,0,0,0,0,0,0,6.0886,6.0887,0,6.0992,6.0993,6.0994,6.0952,6.095,6.0947,6.0945,6.1049,6.1054,6.1059,0,0,0,0,0,0,0,0,0,0,0,0,0,6.0641,6.0646,6.0886,6.0887,6.0889,6.0992,6.0993,6.0995,6.0952,6.0949,6.0946,6.0944,6.1047,6.1053,6.1059,0,0,0,0,0,0,0,0,0,0,0,0,0,6.0747,6.0647,6.0886,6.088,6.0881,6.0992,6.0993,6.0995,6.0953,6.0949,6.0946,6.0942,6.1045,6.1052,6.106,6.1181,0,0,6.1083,6.1086,0,0,0,0,0,0,0,0,6.0741,6.0756,6.088,6.0881,6.0881,6.0955,6.0945,6.1057,6.0954,6.0925,6.0945,6.094,6.102,6.103,6.1058,6.1186,6.1191,6.1084,6.1088,6.1092,6.1094,0,0,0,0,0,0,0,6.0734,6.0751,6.0928,6.0881,6.0883,6.087,6.0881,6.0966,6.0992,6.0928,6.0925,6.0938,6.102,6.105,6.106,6.1192,6.1084,6.109,6.1095,6.1098,6.1423,6.1427,0,0,0,0,0,0,6.0727,6.0745,6.0924,6.0931,6.0801,6.0878,6.089,6.0935,6.0991,6.0996,6.0941,6.0936,6.1039,6.1051,6.1063,6.1208,6.1092,6.1099,6.1103,6.1419,6.1424,6.1428,0,0,0,0,0,0,6.0722,6.0743,6.092,6.0837,6.0859,6.0886,6.0937,6.0939,6.097,6.1002,6.1005,6.0968,6.1037,6.1052,6.1152,6.1211,6.1102,6.1109,6.1414,6.1421,6.1426,6.1499,0,0,0,0,0,0,6.0715,6.0742,6.079,6.0839,6.0864,6.1009,6.0941,6.0944,6.0983,6.0977,6.1028,6.1032,6.1035,6.1141,6.116,6.1219,6.1115,6.1409,6.1417,6.1424,6.1491,6.1506,6.152,0,0,0,0,0,6.0706,6.0805,6.0792,6.0814,6.0925,6.1013,6.1027,6.1029,6.0988,6.1036,6.1056,6.1031,6.1201,6.1152,6.1172,6.1235,6.1405,6.1415,6.1424,6.1485,6.1503,6.1519,0,0,0,0,0,0,6.0761,6.0812,6.0798,6.0916,6.0961,6.1006,6.1066,6.1049,6.1105,6.1097,6.1096,6.1108,6.121,6.1232,6.1176,6.1354,6.1297,6.1311,6.1336,6.1354,6.1368,6.136,6.1121,0,0,0,0,0,6.0787,6.0857,6.0896,6.0996,6.102,6.1039,6.1077,6.1075,6.1121,6.1139,6.1167,6.121,6.1273,6.1315,6.1375,6.1494,6.1503,6.1547,6.1561,6.1573,6.1584,6.1647,6.1667,6.1458,6.1458,6.1458,0,0,6.0841,6.0877,6.0921,6.1008,6.1043,6.1112,6.1055,6.1132,6.1183,6.115,6.1246,6.1268,6.1316,6.1425,6.1475,6.1447,6.1644,6.1584,6.1593,6.1599,6.1658,6.1678,6.1696,6.1465,6.1463,6.1462,0,0,6.0976,6.1011,6.1098,6.1133,6.1186,6.1198,6.1218,6.1266,6.1279,6.1376,6.1352,6.1412,6.1521,6.1556,6.1588,6.1734,6.1712,6.1753,6.1827,6.1888,6.1905,6.1919,6.197,6.1988,6.1765,6.1765,6.1765,0,6.1036,6.1142,6.1144,6.1223,6.1261,6.1235,6.1322,6.1355,6.1424,6.145,6.1418,6.1554,6.1585,6.1701,6.1737,6.1764,6.1786,6.1748,6.1903,6.1917,6.1931,6.1979,6.1998,6.1769,6.1769,6.1768,6.1768,0,6.1213,6.1286,6.135,6.1419,6.1464,6.1546,6.1558,6.1603,6.1596,6.1611,6.1708,6.1744,6.181,6.1837,6.1832,6.1953,6.1933,6.1902,6.1845,6.1955,6.2,6.2019,6.1776,6.1774,6.1773,6.1772,0,0,6.1386,6.1453,6.1477,6.1507,6.1562,6.1618,6.1698,6.1764,6.1802,6.185,6.1915,6.2008,6.1979,6.2015,6.2012,6.2066,6.2177,6.2028,6.2029,6.2054,6.2311,6.2334,6.2355,6.2163,6.2167,6.217,6.2306,0,6.1523,6.1666,6.1669,6.1798,6.1865,6.184,6.1909,6.195,6.1965,6.2022,6.2038,6.2103,6.2061,6.2082,6.2134,6.2153,6.2229,6.2143,6.2222,6.2225,6.2211,6.2379,6.2404,6.2532,6.2324,6.2327,6.2329,0,6.1704,6.1759,6.1895,6.1939,6.1968,6.203,6.209,6.2145,6.2189,6.2196,6.2237,6.2226,6.2304,6.2244,6.2352,6.2293,6.2325,6.2339,6.2344,6.2351,6.2284,6.239,6.2572,6.2591,6.2357,6.2355,6.2353,0,6.1815,6.1922,6.2018,6.2044,6.2099,6.2143,6.2167,6.2208,6.2247,6.2298,6.2323,6.2382,6.2414,6.246,6.2464,6.242,6.2571,6.2512,6.2578,6.2578,6.2611,6.2609,6.2801,6.2633,6.2632,6.2632,6.2632,0,6.1968,6.2053,6.2068,6.2127,6.2219,6.2221,6.2312,6.2332,6.2368,6.2428,6.241,6.2467,6.2469,6.2527,6.253,6.2618,6.2632,6.2639,6.2639,6.2641,6.264,6.2661,6.2652,6.2637,6.2636,6.2635,6.2634,0,6.2108,6.2123,6.2224,6.2268,6.228,6.2347,6.2382,6.2437,6.245,6.2526,6.2544,6.2564,6.263,6.2639,6.2716,6.2718,6.2823,6.2814,6.2809,6.2807,6.2872,6.2866,6.3085,6.3113,6.2927,6.2929,6.293,0,6.2205,6.227,6.232,6.236,6.2387,6.2451,6.249,6.2493,6.2535,6.2589,6.2637,6.2701,6.2753,6.286,6.288,6.2938,6.293,6.3002,6.2938,6.2937,6.293,6.2926,6.2931,6.3015,6.3017,6.3018,6.302,0,6.2376,6.2379,6.2438,6.2499,6.2547,6.2594,6.2639,6.2672,6.268,6.2728,6.2796,6.2836,6.2915,6.2979,6.3036,6.3059,6.304,6.304,6.3058,6.306,6.3054,6.3057,6.2842,6.3035,6.3033,6.3032,6.3031,6.3031,6.2497,6.2552,6.2596,6.2661,6.2695,6.2737,6.279,6.281,6.2867,6.2933,6.293,6.3005,6.3045,6.312,6.3147,6.3204,6.318,6.3206,6.3213,6.3219,6.3225,6.3045,6.3214,6.3214,6.3213,6.3213,6.3213,0,6.2665,6.2692,6.2752,6.2815,6.2866,6.2846,6.2893,6.2937,6.3003,6.3043,6.3095,6.3172,6.3233,6.3258,6.3317,6.3358,6.3351,6.3373,6.337,6.3375,6.3244,6.3222,6.3378,6.3378,6.3378,6.3378,6.3378,6.3378,6.2759,6.2851,6.2859,6.2967,6.2992,6.3067,6.3096,6.3133,6.3165,6.3253,6.3304,6.332,6.3353,6.3414,6.3469,6.3474,6.3496,6.3523,6.3524,6.3401,6.3385,6.3369,6.3348,6.3528,6.3528,6.365,6.3652,6.3652]}]]